Regional Weather Roundup
Issued by NWS Midland/Odessa, TX

Skip options and go directly to product.
Home | Oldest Version | Previous Version | Current Version | All | Graphics & Text | Save Text | Print | Product List | Glossary On

Skip product version selection by date and time.   
461
ASUS44 KMAF 310010
RWRMAF
MIDLAND AREA WEATHER ROUNDUP
NATIONAL WEATHER SERVICE MIDLAND TX
700 PM CDT THU MAR 30 2017

...IN SOUTHWEST TEXAS AND SOUTHEAST NEW MEXICO...

CITY           SKY/WX    TMP DP  RH WIND       PRES   REMARKS
ALPINE         SUNNY     76  22  13 SW13G24   29.92F
ANDREWS        FAIR      80  19  10 W14G24    29.73F
ARTESIA        SUNNY     81  21  11 SW25G32   29.70F
BIG SPRING     SUNNY     80  26  14 SW16      29.74F
CARLSBAD       SUNNY     81  15   8 SW21      29.71F
DRYDEN           N/A     85  25  11 SW15      29.75F
FORT STOCKTON  SUNNY     83  19   9 W13       29.76F
GUAD PASS      SUNNY     70  15  12 SW33G48   29.85S
HOBBS          SUNNY     77  14   9 SW16G23   29.75S
MARFA          SUNNY     74  17  11 SW14      29.91S
MIDLAND AIRPK  SUNNY     82  18   9 SW16G23   29.73F
MIDLAND INTL   SUNNY     82  18   9 W18G24    29.72F
ODESSA           N/A     82  18   9 W16       29.74F
PECOS          SUNNY     83  24  12 W13       29.73F
PRESIDIO       FAIR      83  22  10 S10G20    29.82F
SEMINOLE       SUNNY     79  19  11 W13G21    29.74S
SNYDER         SUNNY     78  34  20 SW14      29.72S
WINK           SUNNY     83  16   8 W22G29    29.71F
$$
...OTHER STATIONS IN TEXAS...

CITY           SKY/WX    TMP DP  RH WIND       PRES   REMARKS
ABILENE        SUNNY     77  37  23 W12       29.71F
AMARILLO       SUNNY     68  35  29 S10       29.72F
AUSTIN         PTCLDY    77  46  33 S13       29.75F
BROWNSVILLE    CLEAR     75  55  49 NE10      29.83S
CORPUS CHRISTI CLEAR     76  53  44 SE14      29.81S
DALLAS FTW     PTCLDY    79  43  27 NW8       29.69F
DEL RIO        SUNNY     80  43  26 SE8       29.75F
EL PASO        MOSUNNY   80  10   7 SW17      29.79F
HOUSTON INT    CLEAR     74  47  38 W8        29.78F
LUBBOCK        MOSUNNY   77  30  17 W10       29.70F
SAN ANGELO     SUNNY     81  35  19 SW17      29.73F
SAN ANTONIO    MOSUNNY   77  44  30 S10       29.78S
WACO           CLEAR     74  50  42 SW6       29.74S
WICHITA FALLS  NOT AVBL
$$
...OTHER LOCATIONS IN NEW MEXICO...

CITY           SKY/WX    TMP DP  RH WIND       PRES   REMARKS
ALAMAGORDO       N/A    N/A N/A N/A MISG        N/A
ALBUQUERQUE    PTSUNNY   71  21  15 S17G24    29.71F
CANNON AFB     SUNNY     73  28  18 W9        29.71F
CLOVIS         SUNNY     72  36  26 SW12      29.72S
HOLLOMAN AFB   SUNNY     77  17  10 SW20G25   29.80F
ROSWELL        SUNNY     80  20  10 S9          N/A
RUIDOSO        SUNNY     61  21  21 SW22G30   29.89F
SANTA FE       CLOUDY    65  24  21 SW7       29.76F
TRUTH OR CONSE SUNNY     76  17  11 W21G26    29.75F
TUCUMCARI      CLOUDY    74  34  23 SE8       29.65F
$$